FW9287 Weather Reports


Display with metric or nautical units.
time (UTC)temp
F
wind
direction
speed
MPH
gust
MPH
rain 1hr
in
rain 24hr
in
rain mn
in
humidity
%
barometer
mb
20260505173222 65 331 2.0 8.0 0.00 0.00 0.00 38 915.4
20260505172854 64 261 1.0 8.0 0.00 0.00 0.00 38 915.5
20260505172752 64 68 1.0 5.0 0.00 0.00 0.00 38 915.5
20260505172432 64 347 1.0 7.0 0.00 0.00 0.00 38 915.5
20260505172324 64 344 1.0 7.0 0.00 0.00 0.00 38 915.5
20260505172218 64 340 1.0 7.0 0.00 0.00 0.00 38 915.5
20260505172116 64 314 1.0 7.0 0.00 0.00 0.00 38 915.5
20260505172011 64 342 1.0 7.0 0.00 0.00 0.00 39 915.5
20260505171905 64 9 1.0 7.0 0.00 0.00 0.00 39 915.5
20260505171800 64 309 2.0 7.0 0.00 0.00 0.00 39 915.5
20260505171654 64 212 2.0 7.0 0.00 0.00 0.00 39 915.5
20260505171326 64 208 3.0 7.0 0.00 0.00 0.00 39 915.5
20260505171217 64 130 3.0 7.0 0.00 0.00 0.00 39 915.5
20260505171115 64 249 3.0 7.0 0.00 0.00 0.00 39 915.5
20260505171012 64 226 3.0 7.0 0.00 0.00 0.00 38 915.5
20260505170909 64 215 3.0 7.0 0.00 0.00 0.00 39 915.5
20260505170805 64 245 2.0 7.0 0.00 0.00 0.00 39 915.5
20260505170440 64 226 2.0 7.0 0.00 0.00 0.00 39 915.5
20260505170337 64 226 2.0 7.0 0.00 0.00 0.00 39 915.5
20260505170234 64 227 1.0 7.0 0.00 0.00 0.00 38 915.5
20260505165907 64 259 1.0 7.0 0.00 0.00 0.00 40 915.5
20260505165805 64 261 1.0 7.0 0.00 0.00 0.00 40 915.4
20260505165703 64 250 0.0 7.0 0.00 0.00 0.00 39 915.4
20260505165559 64 208 0.0 7.0 0.00 0.00 0.00 41 915.5
20260505165454 64 86 0.0 3.0 0.00 0.00 0.00 41 915.4
20260505165350 63 239 0.0 7.0 0.00 0.00 0.00 41 915.5
20260505165247 63 17 0.0 7.0 0.00 0.00 0.00 41 915.4
20260505165139 63 44 0.0 7.0 0.00 0.00 0.00 41 915.4
20260505165036 63 163 0.0 7.0 0.00 0.00 0.00 41 915.4
20260505164932 63 163 0.0 7.0 0.00 0.00 0.00 41 915.5
20260505164606 62 174 1.0 7.0 0.00 0.00 0.00 42 915.4
20260505164459 62 204 2.0 7.0 0.00 0.00 0.00 42 915.4
20260505164354 62 184 2.0 7.0 0.00 0.00 0.00 42 915.4
20260505164247 62 184 2.0 7.0 0.00 0.00 0.00 42 915.4
20260505164142 62 277 2.0 7.0 0.00 0.00 0.00 42 915.4
20260505164039 62 173 2.0 7.0 0.00 0.00 0.00 42 915.5
20260505163717 62 179 3.0 7.0 0.00 0.00 0.00 42 915.4
20260505163612 61 211 3.0 7.0 0.00 0.00 0.00 43 915.4
20260505163250 61 166 2.0 6.0 0.00 0.00 0.00 43 915.4
20260505163146 61 186 2.0 6.0 0.00 0.00 0.00 43 915.4
20260505163043 61 222 2.0 6.0 0.00 0.00 0.00 43 915.4
20260505162935 61 234 2.0 6.0 0.00 0.00 0.00 43 915.3
20260505162828 61 201 2.0 6.0 0.00 0.00 0.00 44 915.4
20260505162721 61 265 2.0 6.0 0.00 0.00 0.00 43 915.3
20260505162615 61 235 2.0 5.0 0.00 0.00 0.00 44 915.3
20260505162511 61 163 2.0 5.0 0.00 0.00 0.00 44 915.3
20260505162408 61 148 2.0 5.0 0.00 0.00 0.00 44 915.4
20260505162302 61 144 2.0 6.0 0.00 0.00 0.00 44 915.3
20260505162155 61 167 2.0 6.0 0.00 0.00 0.00 44 915.3
20260505161611 61 211 2.0 6.0 0.00 0.00 0.00 44 915.3
20260505161509 61 171 2.0 6.0 0.00 0.00 0.00 44 915.3
20260505161406 61 165 3.0 6.0 0.00 0.00 0.00 44 915.3
20260505161301 61 161 3.0 6.0 0.00 0.00 0.00 44 915.2
20260505161156 61 182 3.0 6.0 0.00 0.00 0.00 44 915.3
20260505161050 61 169 3.0 6.0 0.00 0.00 0.00 44 915.3
20260505160944 61 171 3.0 6.0 0.00 0.00 0.00 44 915.3
20260505160356 61 150 2.0 6.0 0.00 0.00 0.00 43 915.3
20260505153216 60 175 1.0 6.0 0.00 0.00 0.00 47 915.4
20260505153112 60 96 1.0 6.0 0.00 0.00 0.00 47 915.3
20260505153005 60 165 1.0 6.0 0.00 0.00 0.00 47 915.3
20260505152902 59 123 1.0 6.0 0.00 0.00 0.00 48 915.3
20260505152757 59 82 2.0 6.0 0.00 0.00 0.00 48 915.3
20260505152434 59 135 2.0 8.0 0.00 0.00 0.00 48 915.2
20260505152328 59 130 2.0 8.0 0.00 0.00 0.00 49 915.2
20260505152221 59 126 2.0 8.0 0.00 0.00 0.00 48 915.2
20260505152118 58 137 3.0 8.0 0.00 0.00 0.00 49 915.2
20260505152012 58 134 3.0 8.0 0.00 0.00 0.00 49 915.2
20260505151908 58 159 3.0 8.0 0.00 0.00 0.00 49 915.2
20260505151802 58 169 2.0 8.0 0.00 0.00 0.00 49 915.2
20260505151436 58 164 2.0 8.0 0.00 0.00 0.00 49 915.1
20260505151329 58 142 2.0 8.0 0.00 0.00 0.00 50 915.2
20260505151224 58 99 3.0 8.0 0.00 0.00 0.00 50 915.1
20260505151116 58 140 2.0 8.0 0.00 0.00 0.00 50 915.1
20260505151011 58 140 2.0 8.0 0.00 0.00 0.00 50 915.1
20260505150904 58 138 2.0 8.0 0.00 0.00 0.00 50 915.1
20260505150800 58 182 3.0 8.0 0.00 0.00 0.00 50 915.1
20260505150657 58 143 3.0 8.0 0.00 0.00 0.00 50 915.1
20260505150552 58 121 3.0 8.0 0.00 0.00 0.00 50 915.1
20260505150449 58 125 2.0 8.0 0.00 0.00 0.00 50 915.0
20260505150122 58 143 2.0 8.0 0.00 0.00 0.00 50 915.1
20260505140645 55 148 0.0 5.0 0.00 0.00 0.00 54 914.8
20260505140539 55 154 0.0 5.0 0.00 0.00 0.00 54 914.8
20260505140433 55 121 0.0 4.0 0.00 0.00 0.00 54 914.8
20260505140331 55 176 0.0 4.0 0.00 0.00 0.00 54 914.8
20260505140227 55 132 0.0 4.0 0.00 0.00 0.00 54 914.8
20260505140122 55 186 0.0 4.0 0.00 0.00 0.00 54 914.7
20260505130154 51 92 0.0 6.0 0.00 0.00 0.00 56 914.2
20260505124834 52 149 0.0 1.0 0.00 0.00 0.00 56 914.1
20260505124728 52 142 0.0 1.0 0.00 0.00 0.00 56 914.0
20260505124624 52 143 0.0 1.0 0.00 0.00 0.00 56 914.0
20260505124519 52 143 0.0 1.0 0.00 0.00 0.00 56 914.0
20260505124415 52 146 0.0 1.0 0.00 0.00 0.00 56 914.0
20260505124307 52 132 0.0 1.0 0.00 0.00 0.00 55 914.1
20260505123942 52 99 0.0 1.0 0.00 0.00 0.00 55 914.0
20260505123839 52 143 0.0 0.0 0.00 0.00 0.00 56 914.0
20260505123734 52 143 0.0 1.0 0.00 0.00 0.00 56 914.0
20260505123632 52 143 0.0 1.0 0.00 0.00 0.00 56 914.0
20260505123050 52 136 0.0 1.0 0.00 0.00 0.00 55 914.0
20260505122945 52 151 0.0 1.0 0.00 0.00 0.00 55 914.0
20260505122839 52 150 0.0 1.0 0.00 0.00 0.00 55 914.0
20260505122735 52 157 0.0 1.0 0.00 0.00 0.00 55 913.9
20260505122143 52 142 0.0 2.0 0.00 0.00 0.00 55 914.1
20260505122041 52 140 0.0 2.0 0.00 0.00 0.00 55 914.0
20260505121937 52 140 0.0 2.0 0.00 0.00 0.00 55 914.0
20260505121832 52 132 0.0 2.0 0.00 0.00 0.00 55 914.1
20260505121727 52 118 0.0 2.0 0.00 0.00 0.00 55 914.1
20260505121620 52 117 0.0 2.0 0.00 0.00 0.00 55 914.1
20260505121517 52 123 0.0 2.0 0.00 0.00 0.00 55 914.1
20260505121413 52 123 0.0 2.0 0.00 0.00 0.00 55 914.1
20260505121308 52 123 0.0 2.0 0.00 0.00 0.00 55 914.1
20260505121200 52 124 0.0 2.0 0.00 0.00 0.00 55 914.1
20260505121054 52 124 0.0 2.0 0.00 0.00 0.00 55 914.0
20260505120952 52 124 0.0 2.0 0.00 0.00 0.00 55 914.0
20260505120408 52 140 0.0 2.0 0.00 0.00 0.00 55 913.9
20260505120039 52 159 0.0 2.0 0.00 0.00 0.00 55 914.0
20260505115932 52 164 0.0 2.0 0.00 0.00 0.00 55 914.0
20260505115827 52 164 0.0 2.0 0.00 0.00 0.00 55 914.1
20260505115724 52 164 0.0 2.0 0.00 0.00 0.00 55 914.1
20260505115620 52 164 0.0 2.0 0.00 0.00 0.00 55 914.1
20260505115518 52 164 0.0 2.0 0.00 0.00 0.00 55 914.1
20260505115414 52 164 0.0 2.0 0.00 0.00 0.00 55 914.1
20260505115309 52 164 0.0 2.0 0.00 0.00 0.00 55 914.1
20260505115206 52 164 0.0 2.0 0.00 0.00 0.00 55 914.1
20260505115100 52 164 0.0 2.0 0.00 0.00 0.00 55 914.2
20260505114957 52 164 0.0 2.0 0.00 0.00 0.00 55 914.2
20260505114630 52 129 0.0 2.0 0.00 0.00 0.00 55 914.2
20260505114527 52 123 0.0 2.0 0.00 0.00 0.00 55 914.2
20260505114423 52 122 0.0 2.0 0.00 0.00 0.00 55 914.1
20260505114320 52 131 0.0 2.0 0.00 0.00 0.00 55 914.2
20260505113956 52 141 0.0 0.0 0.00 0.00 0.00 54 914.2
20260505113853 52 140 0.0 0.0 0.00 0.00 0.00 54 914.1
20260505113746 52 140 0.0 0.0 0.00 0.00 0.00 54 914.2
20260505113643 52 140 0.0 3.0 0.00 0.00 0.00 55 914.2
20260505113317 52 140 1.0 3.0 0.00 0.00 0.00 55 914.3
20260505113209 52 140 1.0 3.0 0.00 0.00 0.00 54 914.3
20260505113106 52 140 1.0 3.0 0.00 0.00 0.00 54 914.3
20260505112958 52 140 1.0 3.0 0.00 0.00 0.00 54 914.2
20260505112854 52 139 1.0 3.0 0.00 0.00 0.00 54 914.2
20260505112748 52 146 1.0 3.0 0.00 0.00 0.00 53 914.2
20260505112641 52 140 1.0 2.0 0.00 0.00 0.00 53 914.2
20260505112537 52 153 1.0 2.0 0.00 0.00 0.00 53 914.2
20260505112435 52 146 1.0 2.0 0.00 0.00 0.00 53 914.2
20260505112331 52 143 1.0 2.0 0.00 0.00 0.00 53 914.2
20260505112225 52 155 1.0 2.0 0.00 0.00 0.00 53 914.1
20260505112119 52 141 0.0 2.0 0.00 0.00 0.00 53 914.1
20260505112011 52 146 0.0 2.0 0.00 0.00 0.00 53 914.2
20260505111904 52 145 0.0 2.0 0.00 0.00 0.00 53 914.2
20260505111801 52 185 0.0 2.0 0.00 0.00 0.00 53 914.1
20260505111215 52 144 0.0 0.0 0.00 0.00 0.00 54 914.1
20260505111109 52 144 0.0 0.0 0.00 0.00 0.00 54 914.1
20260505111004 52 144 0.0 0.0 0.00 0.00 0.00 54 914.1
20260505110858 52 144 0.0 0.0 0.00 0.00 0.00 54 914.1
20260505110756 52 144 0.0 2.0 0.00 0.00 0.00 54 914.1
20260505110651 52 144 0.0 2.0 0.00 0.00 0.00 54 914.1
20260505110546 52 144 0.0 1.0 0.00 0.00 0.00 54 914.1
20260505110442 52 144 0.0 1.0 0.00 0.00 0.00 54 914.1
20260505110337 52 144 0.0 1.0 0.00 0.00 0.00 54 914.1
20260505110231 52 144 0.0 1.0 0.00 0.00 0.00 54 914.1
20260505110126 53 144 0.0 1.0 0.00 0.00 0.00 54 914.1
20260505102137 54 137 0.0 2.0 0.00 0.00 0.00 53 914.3
20260505102030 54 140 0.0 5.0 0.00 0.00 0.00 53 914.3
20260505101702 54 136 1.0 5.0 0.00 0.00 0.00 53 914.3
20260505101340 54 141 1.0 5.0 0.00 0.00 0.00 53 914.3
20260505101233 54 141 1.0 5.0 0.00 0.00 0.00 53 914.3
20260505101128 54 140 1.0 5.0 0.00 0.00 0.00 53 914.3
20260505101026 54 139 1.0 7.0 0.00 0.00 0.00 53 914.3
20260505100923 54 136 1.0 7.0 0.00 0.00 0.00 53 914.3
20260505100816 55 150 1.0 7.0 0.00 0.00 0.00 53 914.4
20260505100711 55 141 0.0 7.0 0.00 0.00 0.00 52 914.3
20260505100604 55 142 0.0 7.0 0.00 0.00 0.00 52 914.3
20260505100458 55 154 0.0 7.0 0.00 0.00 0.00 52 914.4
20260505100351 55 111 0.0 7.0 0.00 0.00 0.00 52 914.4
20260505100247 55 97 0.0 7.0 0.00 0.00 0.00 51 914.4
20260505095927 55 77 1.0 7.0 0.00 0.00 0.00 52 914.4
20260505095822 55 128 1.0 7.0 0.00 0.00 0.00 52 914.4
20260505095715 55 131 1.0 7.0 0.00 0.00 0.00 52 914.4
20260505095613 55 155 2.0 7.0 0.00 0.00 0.00 52 914.4
20260505095506 55 155 2.0 7.0 0.00 0.00 0.00 52 914.4
20260505095144 55 137 2.0 7.0 0.00 0.00 0.00 52 914.3
20260505095041 55 141 1.0 6.0 0.00 0.00 0.00 52 914.3
20260505094940 55 169 1.0 6.0 0.00 0.00 0.00 51 914.4
20260505094832 55 170 1.0 6.0 0.00 0.00 0.00 51 914.4
20260505094730 55 150 1.0 6.0 0.00 0.00 0.00 51 914.4
20260505094627 55 155 0.0 4.0 0.00 0.00 0.00 51 914.4
20260505094523 55 144 0.0 3.0 0.00 0.00 0.00 50 914.4
20260505094418 55 129 0.0 3.0 0.00 0.00 0.00 50 914.4
20260505093833 55 95 0.0 2.0 0.00 0.00 0.00 49 914.5
20260505093730 55 95 0.0 2.0 0.00 0.00 0.00 48 914.4
20260505093624 55 115 0.0 1.0 0.00 0.00 0.00 48 914.4
20260505093520 55 115 0.0 1.0 0.00 0.00 0.00 48 914.4
20260505093415 55 113 0.0 4.0 0.00 0.00 0.00 48 914.4
20260505093311 55 113 0.0 4.0 0.00 0.00 0.00 48 914.4
20260505093205 55 111 0.0 4.0 0.00 0.00 0.00 48 914.4
20260505093058 55 108 0.0 4.0 0.00 0.00 0.00 48 914.4
20260505092951 55 108 0.0 4.0 0.00 0.00 0.00 48 914.4
20260505092846 55 92 0.0 4.0 0.00 0.00 0.00 48 914.4
20260505092740 55 88 1.0 4.0 0.00 0.00 0.00 48 914.4
20260505092414 55 91 1.0 4.0 0.00 0.00 0.00 47 914.4
20260505092313 55 89 1.0 4.0 0.00 0.00 0.00 47 914.4
20260505092206 54 86 1.0 4.0 0.00 0.00 0.00 47 914.4
20260505092059 54 89 1.0 4.0 0.00 0.00 0.00 47 914.4
20260505091956 54 75 1.0 4.0 0.00 0.00 0.00 47 914.5
20260505091854 54 58 1.0 4.0 0.00 0.00 0.00 47 914.4
20260505091746 54 74 1.0 4.0 0.00 0.00 0.00 47 914.4
20260505091644 54 80 1.0 4.0 0.00 0.00 0.00 48 914.4
20260505091540 54 68 1.0 4.0 0.00 0.00 0.00 48 914.4
20260505091435 54 78 1.0 3.0 0.00 0.00 0.00 47 914.4
20260505091109 55 83 1.0 2.0 0.00 0.00 0.00 47 914.4
20260505091001 55 80 0.0 2.0 0.00 0.00 0.00 47 914.5
20260505090859 55 83 0.0 2.0 0.00 0.00 0.00 47 914.5
20260505090754 55 80 0.0 2.0 0.00 0.00 0.00 46 914.5
20260505090648 55 88 0.0 2.0 0.00 0.00 0.00 46 914.6
20260505090541 55 71 0.0 2.0 0.00 0.00 0.00 46 914.6
20260505090211 55 95 0.0 0.0 0.00 0.00 0.00 46 914.6
20260505090104 55 96 0.0 0.0 0.00 0.00 0.00 46 914.5
20260505090001 55 96 0.0 0.0 0.00 0.00 0.00 46 914.6
20260505085858 55 128 0.0 0.0 0.00 0.00 0.00 46 914.5
20260505085317 55 128 0.0 3.0 0.00 0.00 0.00 46 914.6
20260505085212 55 128 0.0 3.0 0.00 0.00 0.00 46 914.5
20260505085106 55 130 0.0 3.0 0.00 0.00 0.00 46 914.5
20260505085002 55 130 1.0 3.0 0.00 0.00 0.00 46 914.5
20260505084858 55 130 1.0 3.0 0.00 0.00 0.00 46 914.6
20260505084753 55 142 1.0 3.0 0.00 0.00 0.00 46 914.5
20260505084646 55 143 1.0 3.0 0.00 0.00 0.00 46 914.5
20260505084540 55 142 1.0 3.0 0.00 0.00 0.00 46 914.5
20260505084435 55 140 1.0 3.0 0.00 0.00 0.00 46 914.5
20260505084333 55 140 1.0 3.0 0.00 0.00 0.00 46 914.6
20260505084231 55 142 1.0 3.0 0.00 0.00 0.00 46 914.5
20260505083906 55 148 1.0 3.0 0.00 0.00 0.00 46 914.6
20260505083800 55 145 1.0 3.0 0.00 0.00 0.00 46 914.6
20260505083214 55 144 0.0 3.0 0.00 0.00 0.00 45 914.6
20260505083108 55 144 0.0 3.0 0.00 0.00 0.00 45 914.7
20260505082959 55 144 0.0 3.0 0.00 0.00 0.00 45 914.7
20260505082855 55 134 0.0 1.0 0.00 0.00 0.00 45 914.7
20260505082748 55 119 0.0 1.0 0.00 0.00 0.00 45 914.7
20260505082425 55 106 0.0 0.0 0.00 0.00 0.00 44 914.7
20260505082323 55 106 0.0 0.0 0.00 0.00 0.00 44 914.7
20260505082220 55 106 0.0 0.0 0.00 0.00 0.00 44 914.7
20260505081859 55 107 0.0 0.0 0.00 0.00 0.00 44 914.8
20260505081751 55 107 0.0 1.0 0.00 0.00 0.00 44 914.8
20260505081649 55 117 0.0 0.0 0.00 0.00 0.00 44 914.8
20260505081325 55 142 0.0 0.0 0.00 0.00 0.00 44 914.9
20260505081223 55 142 0.0 3.0 0.00 0.00 0.00 44 914.9
20260505081119 55 142 0.0 3.0 0.00 0.00 0.00 44 914.9
20260505081013 55 142 0.0 3.0 0.00 0.00 0.00 44 915.0
20260505080645 56 67 0.0 2.0 0.00 0.00 0.00 44 914.9
20260505080538 56 67 0.0 2.0 0.00 0.00 0.00 44 914.9
20260505080435 56 73 0.0 2.0 0.00 0.00 0.00 44 914.9
20260505080333 56 63 0.0 2.0 0.00 0.00 0.00 44 914.9
20260505080226 56 69 0.0 2.0 0.00 0.00 0.00 44 915.0
20260505080121 56 69 0.0 2.0 0.00 0.00 0.00 44 915.0
20260505075753 56 74 0.0 2.0 0.00 0.00 0.00 44 915.1
20260505075646 56 73 0.0 2.0 0.00 0.00 0.00 44 915.1
20260505075539 56 73 0.0 2.0 0.00 0.00 0.00 44 915.1
20260505075432 56 69 0.0 2.0 0.00 0.00 0.00 44 915.0
20260505075326 56 66 0.0 2.0 0.00 0.00 0.00 44 915.0
20260505075223 56 65 0.0 1.0 0.00 0.00 0.00 44 915.1
20260505075116 56 65 0.0 1.0 0.00 0.00 0.00 44 915.1
20260505075009 56 65 0.0 0.0 0.00 0.00 0.00 43 915.0
20260505074645 56 65 0.0 0.0 0.00 0.00 0.00 43 915.1
20260505074542 56 65 0.0 0.0 0.00 0.00 0.00 43 915.1
20260505074215 56 65 0.0 0.0 0.00 0.00 0.00 43 915.1
20260505074113 56 65 0.0 3.0 0.00 0.00 0.00 43 915.1
20260505074009 56 65 0.0 3.0 0.00 0.00 0.00 43 915.1
20260505073905 56 65 0.0 3.0 0.00 0.00 0.00 43 915.2
20260505073758 57 65 0.0 3.0 0.00 0.00 0.00 43 915.1
20260505073656 57 65 0.0 3.0 0.00 0.00 0.00 43 915.1
20260505073553 57 65 0.0 3.0 0.00 0.00 0.00 43 915.1
20260505073450 57 65 0.0 3.0 0.00 0.00 0.00 42 915.1
20260505073126 57 65 1.0 3.0 0.00 0.00 0.00 42 915.2
20260505073022 57 65 1.0 3.0 0.00 0.00 0.00 42 915.2
20260505072920 57 64 1.0 3.0 0.00 0.00 0.00 42 915.3
20260505072553 57 68 0.0 3.0 0.00 0.00 0.00 41 915.3
20260505072231 57 53 0.0 3.0 0.00 0.00 0.00 41 915.2
20260505071652 57 74 0.0 1.0 0.00 0.00 0.00 41 915.2
20260505071545 57 150 0.0 0.0 0.00 0.00 0.00 41 915.2
20260505071439 57 150 0.0 0.0 0.00 0.00 0.00 41 915.2
20260505071337 58 150 0.0 1.0 0.00 0.00 0.00 41 915.3
20260505071233 58 150 0.0 1.0 0.00 0.00 0.00 41 915.3
20260505071128 58 148 0.0 1.0 0.00 0.00 0.00 41 915.3
20260505071023 58 150 0.0 0.0 0.00 0.00 0.00 41 915.3
20260505070916 58 150 0.0 0.0 0.00 0.00 0.00 41 915.4
20260505070809 58 150 1.0 5.0 0.00 0.00 0.00 41 915.4
20260505070702 58 150 1.0 5.0 0.00 0.00 0.00 41 915.4
20260505070338 58 150 1.0 5.0 0.00 0.00 0.00 41 915.3
20260505070234 58 150 1.0 5.0 0.00 0.00 0.00 41 915.3
20260505065650 58 155 0.0 3.0 0.00 0.00 0.00 40 915.3
20260505065545 58 156 1.0 3.0 0.00 0.00 0.00 40 915.3
20260505065440 58 142 1.0 3.0 0.00 0.00 0.00 40 915.3
20260505065119 58 139 0.0 3.0 0.00 0.00 0.00 40 915.3
20260505065012 58 149 0.0 3.0 0.00 0.00 0.00 41 915.3
20260505064908 58 149 1.0 3.0 0.00 0.00 0.00 41 915.3
20260505064805 58 139 1.0 3.0 0.00 0.00 0.00 41 915.3
20260505064701 58 139 0.0 3.0 0.00 0.00 0.00 41 915.3
20260505064557 58 146 0.0 3.0 0.00 0.00 0.00 41 915.2
20260505064451 58 141 0.0 3.0 0.00 0.00 0.00 41 915.3
20260505064344 58 159 0.0 3.0 0.00 0.00 0.00 41 915.3
20260505064237 58 145 0.0 3.0 0.00 0.00 0.00 41 915.3
20260505063912 58 146 0.0 2.0 0.00 0.00 0.00 41 915.3
20260505063808 58 153 0.0 1.0 0.00 0.00 0.00 41 915.3
20260505063704 58 154 0.0 0.0 0.00 0.00 0.00 41 915.3
20260505063559 58 154 0.0 0.0 0.00 0.00 0.00 41 915.3
20260505063455 58 154 0.0 0.0 0.00 0.00 0.00 41 915.3
20260505063349 58 154 0.0 0.0 0.00 0.00 0.00 41 915.3
20260505063243 58 154 0.0 0.0 0.00 0.00 0.00 41 915.3
20260505063139 58 154 0.0 3.0 0.00 0.00 0.00 41 915.3
20260505063033 58 154 0.0 3.0 0.00 0.00 0.00 41 915.3
20260505062927 58 154 0.0 3.0 0.00 0.00 0.00 41 915.3
20260505062606 58 103 0.0 3.0 0.00 0.00 0.00 41 915.2
20260505062023 59 128 1.0 3.0 0.00 0.00 0.00 41 915.2
20260505061918 59 146 1.0 3.0 0.00 0.00 0.00 41 915.2
20260505061811 59 147 1.0 3.0 0.00 0.00 0.00 41 915.2
20260505061705 59 148 0.0 3.0 0.00 0.00 0.00 41 915.2
20260505061558 59 98 0.0 4.0 0.00 0.00 0.00 41 915.1
20260505061454 59 139 0.0 4.0 0.00 0.00 0.00 41 915.1
20260505061131 59 146 0.0 4.0 0.00 0.00 0.00 41 915.1
20260505060809 59 110 0.0 4.0 0.00 0.00 0.00 41 915.1
20260505060702 59 110 0.0 4.0 0.00 0.00 0.00 41 915.1
20260505060556 59 110 0.0 4.0 0.00 0.00 0.00 41 915.1
20260505060453 59 110 0.0 4.0 0.00 0.00 0.00 40 915.1
20260505060349 59 110 0.0 4.0 0.00 0.00 0.00 40 915.0
20260505060241 59 116 0.0 4.0 0.00 0.00 0.00 40 915.1
20260505060135 59 116 0.0 4.0 0.00 0.00 0.00 40 915.0
20260505060032 59 116 0.0 4.0 0.00 0.00 0.00 40 915.0
20260505055227 60 91 0.0 3.0 0.00 0.00 0.00 39 915.1
20260505055120 60 91 0.0 3.0 0.00 0.00 0.00 39 915.1
20260505055018 60 86 0.0 3.0 0.00 0.00 0.00 39 915.1
20260505054914 60 84 0.0 3.0 0.00 0.00 0.00 38 915.1
20260505054807 60 82 0.0 3.0 0.00 0.00 0.00 38 915.1
20260505054701 60 90 0.0 3.0 0.00 0.00 0.00 38 915.2
20260505054555 60 71 0.0 3.0 0.00 0.00 0.00 38 915.2
20260505054452 60 66 0.0 3.0 0.00 0.00 0.00 38 915.2
20260505054349 60 70 0.0 0.0 0.00 0.00 0.00 38 915.2
20260505054025 60 69 0.0 5.0 0.00 0.00 0.00 38 915.1
20260505053919 60 67 0.0 5.0 0.00 0.00 0.00 38 915.2
20260505053816 60 83 0.0 5.0 0.00 0.00 0.00 38 915.2
20260505053711 60 83 0.0 5.0 0.00 0.00 0.00 38 915.2
20260505053608 60 87 0.0 5.0 0.00 0.00 0.00 38 915.2
20260505053505 60 80 0.0 5.0 0.00 0.00 0.00 38 915.2
20260505053358 60 81 0.0 5.0 0.00 0.00 0.00 38 915.1
20260505053257 60 101 0.0 3.0 0.00 0.00 0.00 37 915.1
20260505053153 60 74 0.0 3.0 0.00 0.00 0.00 37 915.1
20260505053051 60 77 0.0 3.0 0.00 0.00 0.00 37 915.1
20260505052944 60 88 0.0 3.0 0.00 0.00 0.00 37 915.1
20260505052618 61 134 0.0 0.0 0.00 0.00 0.00 37 915.0
20260505052512 61 134 0.0 0.0 0.00 0.00 0.00 37 915.1
20260505052408 61 140 0.0 0.0 0.00 0.00 0.00 37 915.0
20260505052305 61 140 0.0 0.0 0.00 0.00 0.00 37 915.0
20260505052200 61 140 0.0 4.0 0.00 0.00 0.00 37 915.0
20260505052054 61 140 0.0 4.0 0.00 0.00 0.00 37 915.0
20260505051949 61 140 0.0 4.0 0.00 0.00 0.00 37 915.0
20260505051841 61 140 0.0 4.0 0.00 0.00 0.00 37 915.0
20260505051517 61 157 0.0 3.0 0.00 0.00 0.00 37 914.9
20260505051411 61 154 0.0 3.0 0.00 0.00 0.00 37 914.9
20260505051303 61 142 1.0 5.0 0.00 0.00 0.00 37 914.9
20260505051159 61 142 1.0 5.0 0.00 0.00 0.00 37 914.9
20260505051056 61 142 1.0 5.0 0.00 0.00 0.00 37 914.9
20260505050952 61 142 1.0 5.0 0.00 0.00 0.00 37 914.9
20260505050845 61 165 1.0 5.0 0.00 0.00 0.00 36 914.9
20260505050738 61 163 2.0 5.0 0.00 0.00 0.00 36 914.9
20260505050635 61 153 2.0 5.0 0.00 0.00 0.00 36 914.9
20260505050528 61 150 2.0 5.0 0.00 0.00 0.00 36 914.8
20260505050426 61 164 2.0 5.0 0.00 0.00 0.00 36 914.8
20260505050319 61 175 2.0 5.0 0.00 0.00 0.00 36 914.8
20260505050212 61 152 2.0 5.0 0.00 0.00 0.00 36 914.8
20260505050110 61 150 2.0 5.0 0.00 0.00 0.00 36 914.8
20260505041707 63 165 3.0 12.0 0.00 0.00 0.00 33 914.4
20260505041603 63 182 3.0 12.0 0.00 0.00 0.00 33 914.4
20260505041501 63 155 3.0 12.0 0.00 0.00 0.00 33 914.4
20260505041352 63 184 3.0 12.0 0.00 0.00 0.00 33 914.4
20260505041025 63 174 4.0 12.0 0.00 0.00 0.00 33 914.4
20260505040923 63 191 3.0 12.0 0.00 0.00 0.00 33 914.3
20260505040820 63 179 3.0 12.0 0.00 0.00 0.00 33 914.2
20260505040714 63 162 3.0 12.0 0.00 0.00 0.00 33 914.3
20260505040348 63 185 3.0 12.0 0.00 0.00 0.00 33 914.2
20260505040242 63 162 3.0 12.0 0.00 0.00 0.00 33 914.2
20260505040136 63 222 2.0 12.0 0.00 0.00 0.00 33 914.1
20260505040030 63 162 2.0 10.0 0.00 0.00 0.00 33 914.1
20260505035926 63 169 3.0 10.0 0.00 0.00 0.00 33 914.1
20260505035822 63 167 3.0 10.0 0.00 0.00 0.00 32 914.1
20260505035718 63 180 3.0 10.0 0.00 0.00 0.00 32 914.0
20260505035614 63 193 3.0 10.0 0.00 0.00 0.00 32 914.0
20260505035509 63 179 3.0 10.0 0.00 0.00 0.00 32 914.0
20260505035141 63 163 3.0 10.0 0.00 0.00 0.00 32 913.9
20260505035037 63 185 3.0 10.0 0.00 0.00 0.00 32 914.0
20260505034713 63 186 3.0 10.0 0.00 0.00 0.00 32 913.9
20260505034606 64 161 3.0 10.0 0.00 0.00 0.00 32 913.9
20260505034505 64 188 3.0 10.0 0.00 0.00 0.00 32 913.9
20260505034357 64 165 3.0 10.0 0.00 0.00 0.00 32 913.8
20260505034029 64 184 3.0 10.0 0.00 0.00 0.00 31 913.8
20260505033707 64 209 4.0 10.0 0.00 0.00 0.00 31 913.8
20260505033601 64 169 4.0 10.0 0.00 0.00 0.00 31 913.7
20260505033240 64 184 4.0 10.0 0.00 0.00 0.00 31 913.7
20260505033133 64 200 4.0 10.0 0.00 0.00 0.00 31 913.7
20260505033027 64 183 4.0 10.0 0.00 0.00 0.00 30 913.7
20260505032924 64 198 4.0 10.0 0.00 0.00 0.00 30 913.6
20260505032819 64 169 4.0 10.0 0.00 0.00 0.00 31 913.6
20260505032716 64 211 4.0 10.0 0.00 0.00 0.00 31 913.6
20260505032611 64 202 4.0 9.0 0.00 0.00 0.00 30 913.6
20260505032508 64 182 4.0 9.0 0.00 0.00 0.00 30 913.6
20260505032143 64 185 4.0 9.0 0.00 0.00 0.00 30 913.5
20260505031822 65 194 3.0 9.0 0.00 0.00 0.00 30 913.5
20260505031719 65 205 3.0 8.0 0.00 0.00 0.00 30 913.5
20260505031614 65 218 3.0 8.0 0.00 0.00 0.00 30 913.4
20260505031509 65 181 3.0 8.0 0.00 0.00 0.00 30 913.4
20260505031404 65 235 3.0 8.0 0.00 0.00 0.00 30 913.4
20260505031302 65 167 3.0 8.0 0.00 0.00 0.00 30 913.3
20260505031157 65 197 3.0 10.0 0.00 0.00 0.00 30 913.3
20260505031051 65 180 3.0 10.0 0.00 0.00 0.00 29 913.3
20260505030947 65 180 3.0 10.0 0.00 0.00 0.00 29 913.3
20260505030843 65 235 3.0 10.0 0.00 0.00 0.00 29 913.3
20260505030737 65 188 3.0 10.0 0.00 0.00 0.00 29 913.3
20260505030631 65 209 3.0 10.0 0.00 0.00 0.00 29 913.3
20260505030529 65 192 3.0 10.0 0.00 0.00 0.00 29 913.3
20260505030425 65 188 3.0 10.0 0.00 0.00 0.00 29 913.3
20260505030320 65 178 3.0 10.0 0.00 0.00 0.00 29 913.3
20260505025739 65 195 3.0 10.0 0.00 0.00 0.00 29 913.2
20260505025633 65 196 3.0 10.0 0.00 0.00 0.00 29 913.2
20260505025526 65 175 3.0 10.0 0.00 0.00 0.00 29 913.2
20260505025422 66 167 3.0 10.0 0.00 0.00 0.00 29 913.2
20260505025100 66 207 3.0 7.0 0.00 0.00 0.00 29 913.1
20260505024957 66 207 3.0 7.0 0.00 0.00 0.00 29 913.1
20260505024851 66 200 3.0 7.0 0.00 0.00 0.00 29 913.1
20260505024745 66 190 3.0 7.0 0.00 0.00 0.00 29 913.1
20260505024640 66 182 3.0 7.0 0.00 0.00 0.00 29 913.1
20260505024534 66 201 3.0 7.0 0.00 0.00 0.00 29 913.1
20260505024428 66 215 3.0 7.0 0.00 0.00 0.00 28 913.1
20260505024320 66 191 3.0 7.0 0.00 0.00 0.00 28 913.1
20260505024214 66 168 3.0 7.0 0.00 0.00 0.00 28 913.1
20260505024111 66 163 3.0 7.0 0.00 0.00 0.00 28 913.0
20260505024008 66 184 3.0 7.0 0.00 0.00 0.00 28 913.1
20260505023645 66 163 3.0 10.0 0.00 0.00 0.00 28 913.0
20260505023540 67 173 3.0 10.0 0.00 0.00 0.00 28 913.0
20260505023436 67 202 3.0 10.0 0.00 0.00 0.00 28 913.0
20260505023333 67 175 3.0 10.0 0.00 0.00 0.00 28 913.0
20260505023228 67 166 3.0 10.0 0.00 0.00 0.00 27 913.0
20260505023124 67 167 3.0 10.0 0.00 0.00 0.00 27 913.0
20260505023020 67 170 3.0 10.0 0.00 0.00 0.00 27 913.0
20260505022917 67 184 3.0 10.0 0.00 0.00 0.00 27 913.0
20260505022557 67 185 3.0 10.0 0.00 0.00 0.00 27 912.9
20260505022228 67 179 3.0 10.0 0.00 0.00 0.00 26 912.9
20260505022122 67 193 3.0 10.0 0.00 0.00 0.00 26 912.8
20260505021759 68 194 3.0 15.0 0.00 0.00 0.00 27 912.8
20260505021657 68 178 3.0 15.0 0.00 0.00 0.00 26 912.9
20260505021552 68 163 3.0 15.0 0.00 0.00 0.00 26 912.8
20260505021448 68 161 3.0 15.0 0.00 0.00 0.00 26 912.9
20260505021340 68 178 4.0 15.0 0.00 0.00 0.00 26 913.0
20260505021237 68 193 4.0 15.0 0.00 0.00 0.00 26 913.0
20260505021135 68 165 4.0 15.0 0.00 0.00 0.00 26 912.9
20260505021032 68 159 4.0 15.0 0.00 0.00 0.00 26 912.9
20260505020926 68 185 4.0 15.0 0.00 0.00 0.00 26 913.0
20260505020819 68 148 4.0 15.0 0.00 0.00 0.00 26 912.9
20260505020712 68 164 4.0 15.0 0.00 0.00 0.00 26 912.9
20260505020606 68 202 4.0 15.0 0.00 0.00 0.00 26 912.9
20260505020503 68 198 4.0 15.0 0.00 0.00 0.00 25 912.9
20260505020354 68 184 4.0 15.0 0.00 0.00 0.00 25 912.9
20260505020248 69 167 4.0 15.0 0.00 0.00 0.00 25 912.9
20260505020141 69 157 4.0 15.0 0.00 0.00 0.00 25 912.9
20260505015815 69 220 5.0 10.0 0.00 0.00 0.00 24 912.9
20260505015449 69 211 5.0 10.0 0.00 0.00 0.00 24 912.9
20260505015346 69 187 5.0 10.0 0.00 0.00 0.00 24 912.9
20260505015241 69 203 5.0 10.0 0.00 0.00 0.00 24 912.8
20260505015135 70 184 5.0 10.0 0.00 0.00 0.00 24 912.9
20260505015027 70 188 5.0 10.0 0.00 0.00 0.00 24 912.8
20260505014921 70 190 4.0 10.0 0.00 0.00 0.00 23 912.9
20260505014816 70 193 4.0 11.0 0.00 0.00 0.00 24 912.8
20260505014711 70 194 4.0 11.0 0.00 0.00 0.00 23 912.8
20260505014352 70 155 4.0 11.0 0.00 0.00 0.00 23 912.8
20260505014249 70 143 4.0 11.0 0.00 0.00 0.00 22 912.8
20260505013924 70 171 4.0 11.0 0.00 0.00 0.00 22 912.8
20260505013821 70 165 4.0 16.0 0.00 0.00 0.00 22 912.7
20260505013459 71 230 3.0 16.0 0.00 0.00 0.00 22 912.7
20260505013355 71 193 3.0 16.0 0.00 0.00 0.00 22 912.7
20260505013250 71 169 4.0 16.0 0.00 0.00 0.00 22 912.7
20260505013145 71 208 3.0 16.0 0.00 0.00 0.00 21 912.8
20260505012821 71 151 5.0 16.0 0.00 0.00 0.00 20 912.7
20260505012718 71 165 5.0 16.0 0.00 0.00 0.00 20 912.7
20260505012613 71 180 6.0 16.0 0.00 0.00 0.00 20 912.7
20260505012510 71 175 6.0 16.0 0.00 0.00 0.00 20 912.7
20260505012407 71 165 6.0 16.0 0.00 0.00 0.00 20 912.6
20260505012040 71 187 6.0 16.0 0.00 0.00 0.00 20 912.5
20260505011932 71 158 6.0 16.0 0.00 0.00 0.00 21 912.5
20260505011825 71 229 6.0 14.0 0.00 0.00 0.00 21 912.5
20260505011721 71 175 5.0 13.0 0.00 0.00 0.00 21 912.5
20260505011617 71 205 5.0 13.0 0.00 0.00 0.00 21 912.5
20260505011512 71 191 5.0 13.0 0.00 0.00 0.00 20 912.6
20260505011405 72 199 5.0 13.0 0.00 0.00 0.00 20 912.6
20260505011304 72 170 5.0 13.0 0.00 0.00 0.00 20 912.6
20260505010941 72 195 4.0 10.0 0.00 0.00 0.00 20 912.6
20260505010836 72 209 5.0 10.0 0.00 0.00 0.00 19 912.6
20260505010733 72 192 4.0 10.0 0.00 0.00 0.00 19 912.6
20260505010629 72 164 4.0 10.0 0.00 0.00 0.00 19 912.6
20260505010524 72 161 4.0 10.0 0.00 0.00 0.00 19 912.6
20260505010420 72 173 4.0 10.0 0.00 0.00 0.00 19 912.5
20260505010316 72 198 4.0 10.0 0.00 0.00 0.00 19 912.5
20260505010209 72 178 5.0 10.0 0.00 0.00 0.00 19 912.6
20260505010107 72 177 5.0 10.0 0.00 0.00 0.00 19 912.5
20260505010003 72 186 5.0 10.0 0.00 0.00 0.00 19 912.5
20260505005855 72 169 5.0 10.0 0.00 0.00 0.00 19 912.6
20260505005753 72 198 5.0 10.0 0.00 0.00 0.00 19 912.6
20260505005647 72 159 5.0 10.0 0.00 0.00 0.00 19 912.6
20260505005543 72 183 5.0 10.0 0.00 0.00 0.00 19 912.6
20260505005440 72 184 5.0 10.0 0.00 0.00 0.00 19 912.6
20260505005337 72 169 5.0 10.0 0.00 0.00 0.00 19 912.6
20260505005008 72 206 4.0 10.0 0.00 0.00 0.00 19 912.6
20260505004905 72 156 3.0 10.0 0.00 0.00 0.00 19 912.6
20260505004540 72 150 3.0 10.0 0.00 0.00 0.00 20 912.7
20260505004220 73 153 4.0 10.0 0.00 0.00 0.00 20 912.7
20260505003852 73 183 4.0 10.0 0.00 0.00 0.00 20 912.7
20260505003308 73 141 5.0 18.0 0.00 0.00 0.00 20 912.7
20260505003204 73 168 5.0 18.0 0.00 0.00 0.00 20 912.7
20260505003101 73 150 5.0 18.0 0.00 0.00 0.00 19 912.7
20260505002954 73 165 5.0 18.0 0.00 0.00 0.00 19 912.6
20260505002851 73 160 5.0 18.0 0.00 0.00 0.00 20 912.7
20260505002530 73 168 5.0 18.0 0.00 0.00 0.00 20 912.6
20260505002428 73 146 6.0 18.0 0.00 0.00 0.00 20 912.6
20260505002322 73 178 7.0 18.0 0.00 0.00 0.00 20 912.6
20260505002216 73 174 7.0 18.0 0.00 0.00 0.00 21 912.7
20260505002109 73 190 7.0 18.0 0.00 0.00 0.00 21 912.6
20260505002005 73 198 8.0 18.0 0.00 0.00 0.00 21 912.6
20260505001901 73 188 8.0 18.0 0.00 0.00 0.00 21 912.6
20260505001538 73 230 8.0 18.0 0.00 0.00 0.00 21 912.7
20260505001434 74 223 7.0 18.0 0.00 0.00 0.00 20 912.7
20260505001329 74 223 6.0 16.0 0.00 0.00 0.00 21 912.7
20260505001225 74 205 6.0 16.0 0.00 0.00 0.00 21 912.6
20260505001118 74 199 6.0 16.0 0.00 0.00 0.00 21 912.6
20260505001014 74 196 6.0 16.0 0.00 0.00 0.00 21 912.6
20260505000908 74 213 5.0 13.0 0.00 0.00 0.00 21 912.6
20260505000806 74 224 5.0 10.0 0.00 0.00 0.00 20 912.6
20260505000700 74 178 5.0 10.0 0.00 0.00 0.00 20 912.6
20260505000555 74 199 5.0 10.0 0.00 0.00 0.00 20 912.6
20260505000452 74 149 5.0 10.0 0.00 0.00 0.00 20 912.6
20260505000348 74 157 5.0 10.0 0.00 0.00 0.00 21 912.7
20260505000241 74 192 5.0 10.0 0.00 0.00 0.00 21 912.7
20260505000135 74 161 4.0 10.0 0.00 0.00 0.00 21 912.7
20260505000030 74 186 4.0 10.0 0.00 0.00 0.00 21 912.6
20260504235927 74 178 3.0 10.0 0.00 0.00 0.00 21 912.6
20260504235823 74 169 3.0 9.0 0.00 0.00 0.00 22 912.6
20260504235715 74 198 3.0 12.0 0.00 0.00 0.00 21 912.6
20260504235611 74 205 3.0 12.0 0.00 0.00 0.00 21 912.6
20260504235508 74 221 3.0 12.0 0.00 0.00 0.00 22 912.6
20260504235402 74 201 3.0 12.0 0.00 0.00 0.00 22 912.6
20260504235258 74 200 3.0 12.0 0.00 0.00 0.00 22 912.7
20260504235153 74 145 3.0 12.0 0.00 0.00 0.00 22 912.7
20260504235050 74 140 3.0 12.0 0.00 0.00 0.00 22 912.7
20260504234720 74 166 4.0 12.0 0.00 0.00 0.00 22 912.7
20260504234357 74 157 4.0 12.0 0.00 0.00 0.00 22 912.6
20260504234252 74 155 4.0 12.0 0.00 0.00 0.00 22 912.6
20260504234148 74 136 5.0 12.0 0.00 0.00 0.00 22 912.6
20260504234046 74 174 5.0 12.0 0.00 0.00 0.00 22 912.6
20260504233943 74 211 6.0 12.0 0.00 0.00 0.00 22 912.7
20260504233838 74 187 6.0 12.0 0.00 0.00 0.00 22 912.7
20260504233733 74 209 6.0 11.0 0.00 0.00 0.00 22 912.7
20260504233628 74 215 5.0 11.0 0.00 0.00 0.00 22 912.7
20260504233524 74 219 5.0 11.0 0.00 0.00 0.00 23 912.7
20260504233421 74 174 5.0 11.0 0.00 0.00 0.00 23 912.7
20260504233318 74 179 5.0 11.0 0.00 0.00 0.00 23 912.6
20260504233213 74 214 5.0 11.0 0.00 0.00 0.00 22 912.7
20260504233108 74 238 5.0 11.0 0.00 0.00 0.00 23 912.7
20260504233002 74 236 4.0 15.0 0.00 0.00 0.00 23 912.7
20260504232856 74 219 4.0 15.0 0.00 0.00 0.00 23 912.7
20260504232750 74 194 3.0 15.0 0.00 0.00 0.00 23 912.7
20260504232645 74 215 3.0 15.0 0.00 0.00 0.00 23 912.7
20260504232539 74 192 3.0 15.0 0.00 0.00 0.00 23 912.7
20260504232431 74 172 4.0 15.0 0.00 0.00 0.00 23 912.8
20260504232326 74 209 4.0 15.0 0.00 0.00 0.00 23 912.8
20260504232221 74 180 4.0 15.0 0.00 0.00 0.00 23 912.8
20260504232113 74 177 4.0 15.0 0.00 0.00 0.00 23 912.9
20260504231750 74 196 4.0 15.0 0.00 0.00 0.00 22 912.8
20260504231643 74 193 4.0 15.0 0.00 0.00 0.00 22 913.0
20260504231538 74 190 4.0 15.0 0.00 0.00 0.00 22 912.9
20260504231432 74 167 4.0 15.0 0.00 0.00 0.00 22 913.0
20260504231328 74 189 5.0 15.0 0.00 0.00 0.00 22 912.9
20260504231222 74 171 4.0 15.0 0.00 0.00 0.00 23 913.0
20260504231120 74 181 4.0 15.0 0.00 0.00 0.00 22 913.0
20260504231013 74 153 4.0 11.0 0.00 0.00 0.00 23 913.0
20260504230909 74 190 4.0 11.0 0.00 0.00 0.00 22 913.0
20260504230802 74 177 4.0 11.0 0.00 0.00 0.00 21 913.1
20260504230655 74 180 4.0 11.0 0.00 0.00 0.00 22 913.0
20260504230549 74 205 4.0 11.0 0.00 0.00 0.00 21 913.0
20260504230442 74 136 4.0 11.0 0.00 0.00 0.00 22 913.0
20260504230334 74 144 4.0 11.0 0.00 0.00 0.00 22 912.9
20260504230011 74 82 5.0 11.0 0.00 0.00 0.00 22 913.0
20260504225651 74 149 5.0 11.0 0.00 0.00 0.00 22 912.9
20260504225544 74 161 5.0 11.0 0.00 0.00 0.00 22 912.8
20260504225438 74 178 4.0 11.0 0.00 0.00 0.00 22 912.9
20260504225336 74 141 4.0 11.0 0.00 0.00 0.00 22 912.9
20260504225234 74 135 4.0 11.0 0.00 0.00 0.00 22 912.9
20260504225130 74 200 4.0 11.0 0.00 0.00 0.00 22 912.9
20260504225026 74 177 3.0 11.0 0.00 0.00 0.00 22 912.9
20260504224921 74 181 3.0 11.0 0.00 0.00 0.00 22 913.0
20260504224559 74 180 3.0 8.0 0.00 0.00 0.00 23 913.0
20260504224454 74 149 3.0 8.0 0.00 0.00 0.00 23 913.0
20260504224346 74 167 3.0 8.0 0.00 0.00 0.00 23 913.1
20260504224242 74 178 3.0 8.0 0.00 0.00 0.00 23 913.1
20260504224135 74 190 3.0 8.0 0.00 0.00 0.00 24 913.0
20260504224028 74 188 3.0 8.0 0.00 0.00 0.00 24 913.0
20260504223709 74 131 3.0 10.0 0.00 0.00 0.00 23 913.1
20260504223607 74 173 3.0 10.0 0.00 0.00 0.00 23 913.1
20260504223248 74 154 3.0 10.0 0.00 0.00 0.00 23 913.2
20260504223142 74 200 3.0 10.0 0.00 0.00 0.00 23 913.2
20260504223037 74 161 3.0 10.0 0.00 0.00 0.00 24 913.1
20260504222931 74 115 3.0 10.0 0.00 0.00 0.00 24 913.2
20260504222824 74 132 3.0 10.0 0.00 0.00 0.00 24 913.1
20260504222720 74 126 3.0 10.0 0.00 0.00 0.00 24 913.2
20260504222614 74 118 3.0 10.0 0.00 0.00 0.00 24 913.1
20260504222506 74 118 3.0 10.0 0.00 0.00 0.00 24 913.2
20260504222140 74 128 3.0 10.0 0.00 0.00 0.00 24 913.2
20260504222037 74 163 3.0 10.0 0.00 0.00 0.00 24 913.1
20260504221933 74 127 3.0 10.0 0.00 0.00 0.00 24 913.2
20260504221827 74 122 3.0 10.0 0.00 0.00 0.00 24 913.2
20260504221721 74 133 3.0 10.0 0.00 0.00 0.00 24 913.1
20260504221617 74 120 3.0 10.0 0.00 0.00 0.00 24 913.2
20260504221515 74 109 3.0 10.0 0.00 0.00 0.00 25 913.1
20260504221411 74 148 4.0 10.0 0.00 0.00 0.00 25 913.1
20260504221305 74 155 4.0 10.0 0.00 0.00 0.00 24 913.2
20260504221200 74 135 4.0 10.0 0.00 0.00 0.00 25 913.3
20260504221055 74 130 4.0 10.0 0.00 0.00 0.00 25 913.3
20260504220507 74 145 4.0 10.0 0.00 0.00 0.00 24 913.5
20260504220401 74 146 3.0 10.0 0.00 0.00 0.00 24 913.5
20260504220258 74 153 3.0 8.0 0.00 0.00 0.00 23 913.5
20260504215928 74 158 3.0 8.0 0.00 0.00 0.00 25 913.5
20260504215823 74 122 3.0 8.0 0.00 0.00 0.00 25 913.5
20260504215719 73 171 3.0 8.0 0.00 0.00 0.00 25 913.5
20260504215614 73 169 3.0 8.0 0.00 0.00 0.00 25 913.4
20260504215509 73 157 3.0 8.0 0.00 0.00 0.00 25 913.4
20260504215406 73 194 3.0 8.0 0.00 0.00 0.00 25 913.5
20260504215304 73 158 3.0 8.0 0.00 0.00 0.00 25 913.5
20260504215159 73 130 2.0 8.0 0.00 0.00 0.00 25 913.6
20260504215056 73 145 2.0 8.0 0.00 0.00 0.00 25 913.6
20260504214950 73 144 2.0 9.0 0.00 0.00 0.00 24 913.6
20260504214848 73 130 2.0 9.0 0.00 0.00 0.00 24 913.6
20260504214742 73 159 3.0 9.0 0.00 0.00 0.00 24 913.6
20260504214639 73 157 3.0 9.0 0.00 0.00 0.00 24 913.6
20260504214534 73 146 3.0 9.0 0.00 0.00 0.00 24 913.6
20260504214430 73 162 3.0 9.0 0.00 0.00 0.00 24 913.7
20260504214326 73 146 3.0 9.0 0.00 0.00 0.00 24 913.8
20260504214221 73 138 4.0 9.0 0.00 0.00 0.00 24 913.8
20260504214114 73 128 4.0 9.0 0.00 0.00 0.00 24 913.8
20260504214012 73 132 4.0 9.0 0.00 0.00 0.00 24 913.7
20260504213904 73 140 5.0 11.0 0.00 0.00 0.00 24 913.8
20260504213800 73 140 5.0 11.0 0.00 0.00 0.00 23 913.8
20260504213655 73 142 5.0 11.0 0.00 0.00 0.00 22 913.8
20260504213117 73 197 4.0 11.0 0.00 0.00 0.00 25 913.7
20260504213010 73 175 4.0 11.0 0.00 0.00 0.00 25 913.8
20260504212905 73 192 4.0 11.0 0.00 0.00 0.00 25 913.8
20260504212800 73 195 4.0 11.0 0.00 0.00 0.00 25 913.9
20260504212657 73 181 4.0 11.0 0.00 0.00 0.00 23 913.9
20260504212549 73 158 4.0 11.0 0.00 0.00 0.00 23 913.8
20260504212447 73 182 4.0 11.0 0.00 0.00 0.00 26 913.9
20260504212345 73 130 4.0 11.0 0.00 0.00 0.00 26 914.0
20260504212239 73 173 4.0 11.0 0.00 0.00 0.00 25 914.0
20260504212137 73 196 4.0 11.0 0.00 0.00 0.00 25 913.9
20260504212029 73 147 4.0 11.0 0.00 0.00 0.00 24 913.9
20260504211924 73 174 4.0 11.0 0.00 0.00 0.00 24 913.9
20260504211816 73 161 4.0 11.0 0.00 0.00 0.00 24 913.9
20260504211712 73 158 4.0 11.0 0.00 0.00 0.00 24 913.9
20260504211609 73 138 4.0 11.0 0.00 0.00 0.00 24 913.9
20260504211504 72 174 4.0 11.0 0.00 0.00 0.00 23 914.0
20260504211402 73 158 4.0 11.0 0.00 0.00 0.00 23 914.0
20260504210556 72 130 3.0 14.0 0.00 0.00 0.00 25 914.1
20260504210451 72 128 3.0 14.0 0.00 0.00 0.00 25 914.0
20260504210124 72 181 3.0 14.0 0.00 0.00 0.00 25 914.1
20260504210020 72 151 4.0 14.0 0.00 0.00 0.00 25 914.1
20260504205435 72 128 4.0 14.0 0.00 0.00 0.00 24 914.2
20260504205330 72 184 4.0 14.0 0.00 0.00 0.00 25 914.2
20260504205223 72 145 4.0 14.0 0.00 0.00 0.00 24 914.2
20260504205117 72 153 4.0 14.0 0.00 0.00 0.00 25 914.3
20260504205014 72 146 4.0 14.0 0.00 0.00 0.00 25 914.2
20260504204650 72 98 4.0 9.0 0.00 0.00 0.00 25 914.1
20260504204546 72 190 3.0 9.0 0.00 0.00 0.00 25 914.1
20260504204442 72 176 3.0 9.0 0.00 0.00 0.00 25 914.2
20260504204120 72 145 3.0 10.0 0.00 0.00 0.00 25 914.2
20260504204011 72 161 3.0 10.0 0.00 0.00 0.00 26 914.3
20260504203906 72 159 3.0 10.0 0.00 0.00 0.00 26 914.2
20260504203801 72 144 3.0 10.0 0.00 0.00 0.00 25 914.2
20260504203659 72 148 3.0 10.0 0.00 0.00 0.00 27 914.1
20260504203552 72 178 3.0 10.0 0.00 0.00 0.00 27 914.2
20260504203445 72 142 3.0 10.0 0.00 0.00 0.00 27 914.3
20260504203343 71 180 4.0 10.0 0.00 0.00 0.00 26 914.2
20260504203237 71 157 4.0 10.0 0.00 0.00 0.00 27 914.2
20260504203132 71 132 4.0 10.0 0.00 0.00 0.00 27 914.1
20260504203030 71 161 4.0 10.0 0.00 0.00 0.00 27 914.2
20260504202925 71 149 4.0 10.0 0.00 0.00 0.00 27 914.1
20260504202820 71 158 4.0 10.0 0.00 0.00 0.00 26 914.2
20260504202716 71 186 4.0 10.0 0.00 0.00 0.00 26 914.3
20260504202610 71 170 4.0 10.0 0.00 0.00 0.00 27 914.3
20260504202504 71 154 3.0 10.0 0.00 0.00 0.00 27 914.2
20260504202357 71 137 3.0 10.0 0.00 0.00 0.00 27 914.2
20260504202250 71 194 4.0 10.0 0.00 0.00 0.00 27 914.2
20260504202144 71 140 4.0 10.0 0.00 0.00 0.00 27 914.2
20260504202039 71 167 4.0 11.0 0.00 0.00 0.00 28 914.3
20260504201932 71 186 4.0 11.0 0.00 0.00 0.00 28 914.3
20260504201830 71 196 4.0 11.0 0.00 0.00 0.00 28 914.3
20260504201723 71 165 4.0 11.0 0.00 0.00 0.00 28 914.3
20260504201620 71 181 4.0 11.0 0.00 0.00 0.00 28 914.4
20260504201514 71 155 4.0 11.0 0.00 0.00 0.00 28 914.4
20260504201412 71 134 4.0 11.0 0.00 0.00 0.00 28 914.4
20260504201307 71 130 3.0 11.0 0.00 0.00 0.00 28 914.4
20260504201204 71 154 3.0 11.0 0.00 0.00 0.00 28 914.3
20260504201059 70 140 4.0 11.0 0.00 0.00 0.00 29 914.4
20260504200955 70 180 4.0 11.0 0.00 0.00 0.00 29 914.4
20260504200848 70 143 4.0 11.0 0.00 0.00 0.00 29 914.5
20260504200744 70 158 4.0 11.0 0.00 0.00 0.00 29 914.5
20260504200423 70 190 3.0 11.0 0.00 0.00 0.00 29 914.4
20260504200316 70 192 3.0 11.0 0.00 0.00 0.00 30 914.5
20260504200211 70 173 3.0 11.0 0.00 0.00 0.00 30 914.6
20260504200108 70 146 3.0 11.0 0.00 0.00 0.00 30 914.5
20260504200005 70 152 4.0 9.0 0.00 0.00 0.00 30 914.4
20260504195859 71 136 3.0 9.0 0.00 0.00 0.00 30 914.5
20260504195751 71 176 3.0 8.0 0.00 0.00 0.00 30 914.5
20260504195427 70 125 4.0 8.0 0.00 0.00 0.00 30 914.5
20260504194839 71 150 3.0 8.0 0.00 0.00 0.00 30 914.5
20260504194735 71 159 3.0 10.0 0.00 0.00 0.00 30 914.6
20260504194150 71 185 2.0 10.0 0.00 0.00 0.00 30 914.6
20260504194045 71 182 2.0 10.0 0.00 0.00 0.00 30 914.6
20260504193716 71 128 3.0 10.0 0.00 0.00 0.00 30 914.5
20260504193609 71 151 3.0 10.0 0.00 0.00 0.00 30 914.6
20260504193504 71 86 3.0 10.0 0.00 0.00 0.00 31 914.7
20260504193401 71 120 3.0 10.0 0.00 0.00 0.00 30 914.7
20260504193257 71 150 3.0 10.0 0.00 0.00 0.00 30 914.6
20260504193152 71 178 3.0 10.0 0.00 0.00 0.00 30 914.6
20260504193049 71 160 3.0 10.0 0.00 0.00 0.00 30 914.6
20260504192943 71 142 3.0 10.0 0.00 0.00 0.00 30 914.7
20260504192837 71 184 3.0 10.0 0.00 0.00 0.00 30 914.8
20260504192734 71 130 2.0 8.0 0.00 0.00 0.00 31 914.7
20260504192628 71 141 2.0 8.0 0.00 0.00 0.00 30 914.7
20260504192524 71 191 2.0 8.0 0.00 0.00 0.00 30 914.7
20260504192417 71 169 2.0 8.0 0.00 0.00 0.00 30 914.7
20260504192054 71 129 2.0 7.0 0.00 0.00 0.00 31 914.7
20260504191950 71 158 2.0 8.0 0.00 0.00 0.00 31 914.6
20260504191847 70 121 2.0 8.0 0.00 0.00 0.00 30 914.7
20260504191743 70 148 3.0 8.0 0.00 0.00 0.00 30 914.7
20260504191638 70 133 3.0 8.0 0.00 0.00 0.00 31 914.8
20260504191310 70 176 3.0 8.0 0.00 0.00 0.00 30 914.7
20260504191203 70 164 3.0 8.0 0.00 0.00 0.00 30 914.8
20260504191058 70 137 3.0 8.0 0.00 0.00 0.00 30 914.8
20260504190955 70 143 3.0 8.0 0.00 0.00 0.00 30 914.9
20260504190854 70 198 3.0 8.0 0.00 0.00 0.00 30 914.9
20260504190747 70 209 2.0 8.0 0.00 0.00 0.00 30 914.9
20260504190640 70 139 2.0 8.0 0.00 0.00 0.00 30 914.8
20260504190313 70 142 2.0 8.0 0.00 0.00 0.00 30 914.8
20260504190209 70 198 2.0 8.0 0.00 0.00 0.00 30 914.9
20260504190106 70 63 2.0 8.0 0.00 0.00 0.00 30 914.9
20260504190002 70 169 2.0 8.0 0.00 0.00 0.00 30 914.9
20260504185854 70 146 2.0 7.0 0.00 0.00 0.00 30 914.9
20260504185749 70 81 2.0 7.0 0.00 0.00 0.00 30 914.9
20260504185644 70 157 2.0 7.0 0.00 0.00 0.00 30 914.9
20260504185541 70 144 2.0 7.0 0.00 0.00 0.00 30 914.9
20260504185217 69 155 2.0 9.0 0.00 0.00 0.00 31 914.9
20260504185109 69 139 3.0 9.0 0.00 0.00 0.00 30 914.9
20260504185005 69 141 3.0 9.0 0.00 0.00 0.00 30 914.9
20260504184901 69 182 3.0 9.0 0.00 0.00 0.00 30 914.9
20260504184316 69 149 4.0 10.0 0.00 0.00 0.00 30 914.9
20260504184211 69 174 4.0 10.0 0.00 0.00 0.00 31 915.0
20260504184109 69 154 4.0 10.0 0.00 0.00 0.00 31 915.0
20260504184006 69 147 3.0 10.0 0.00 0.00 0.00 31 915.0
20260504183858 68 155 3.0 10.0 0.00 0.00 0.00 31 915.0
20260504183751 68 160 3.0 10.0 0.00 0.00 0.00 31 915.0
20260504183648 68 173 3.0 10.0 0.00 0.00 0.00 30 915.1
20260504183545 68 161 3.0 10.0 0.00 0.00 0.00 30 915.0
20260504183436 68 153 3.0 11.0 0.00 0.00 0.00 31 915.0
20260504183329 68 164 3.0 11.0 0.00 0.00 0.00 31 915.0
20260504182740 67 160 4.0 11.0 0.00 0.00 0.00 33 915.0
20260504182634 67 139 4.0 11.0 0.00 0.00 0.00 33 915.0
20260504182531 67 182 4.0 11.0 0.00 0.00 0.00 34 915.0
20260504182427 67 179 4.0 11.0 0.00 0.00 0.00 34 915.0
20260504182324 67 173 4.0 11.0 0.00 0.00 0.00 34 914.9
20260504182218 67 166 4.0 11.0 0.00 0.00 0.00 34 915.1
20260504182113 67 133 4.0 11.0 0.00 0.00 0.00 34 915.1
20260504182009 67 171 4.0 11.0 0.00 0.00 0.00 34 915.1
20260504181903 67 161 4.0 11.0 0.00 0.00 0.00 34 915.1
20260504181759 67 130 4.0 11.0 0.00 0.00 0.00 34 915.0
20260504181654 67 198 3.0 11.0 0.00 0.00 0.00 36 915.1
20260504181547 67 163 3.0 11.0 0.00 0.00 0.00 35 915.1
20260504181444 67 213 3.0 9.0 0.00 0.00 0.00 35 915.1
20260504181339 67 170 3.0 9.0 0.00 0.00 0.00 35 915.1
20260504181234 67 161 3.0 9.0 0.00 0.00 0.00 36 915.1
20260504181129 67 173 3.0 9.0 0.00 0.00 0.00 36 915.1
20260504180316 67 186 4.0 9.0 0.00 0.00 0.00 37 915.1
20260504180211 67 171 4.0 9.0 0.00 0.00 0.00 37 915.0
20260504175844 67 218 4.0 9.0 0.00 0.00 0.00 37 915.0
20260504175739 67 169 4.0 9.0 0.00 0.00 0.00 37 915.0
20260504175637 67 165 4.0 9.0 0.00 0.00 0.00 36 915.0
20260504175533 67 180 4.0 9.0 0.00 0.00 0.00 37 915.0
20260504175208 67 152 4.0 9.0 0.00 0.00 0.00 37 915.0
20260504175106 67 182 4.0 9.0 0.00 0.00 0.00 37 915.0
20260504175001 67 197 3.0 9.0 0.00 0.00 0.00 37 914.9
20260504174855 67 152 3.0 9.0 0.00 0.00 0.00 37 914.9
20260504174751 67 232 3.0 9.0 0.00 0.00 0.00 37 914.9
20260504174646 67 171 3.0 9.0 0.00 0.00 0.00 37 914.9
20260504174318 67 153 2.0 8.0 0.00 0.00 0.00 37 915.0
20260504174214 67 150 2.0 8.0 0.00 0.00 0.00 37 915.0
20260504174112 67 150 2.0 9.0 0.00 0.00 0.00 37 915.0
20260504173750 67 134 2.0 9.0 0.00 0.00 0.00 37 915.0
20260504173645 67 128 2.0 9.0 0.00 0.00 0.00 37 915.1
20260504173544 67 182 2.0 9.0 0.00 0.00 0.00 37 915.1
20260504173437 67 192 2.0 9.0 0.00 0.00 0.00 37 915.1
20260504173332 67 126 1.0 9.0 0.00 0.00 0.00 37 915.1